Location: C.E.K. Mees Observatory
(42.7003°N, 77.4088°W)
Time: 22:26:29
(UTC-05:00)

OTV 5 (USA 277) - Pass Details

Date: 09 October 2017
Orbit: 404 x 417 km, 43.0° (Epoch: 07 September)

Event Time Altitude Azimuth Distance (km) Brightness Sun altitude
Rises 20:33:32 0° 238° (WSW) 2,345 ? -22.2°
Reaches altitude 10° 20:35:41 10° 231° (SW) 1,484 ? -22.6°
Enters shadow 20:37:20 25° 216° (SW) 887 ? -22.9°
